Regional Weather Roundup
Issued by NWS Cleveland, OH

Home | Current Version | Previous Version | Graphics & Text | Print | Product List | Glossary On
Versions: 1 2 3 4 5 6 7 8 9 10 11 12 13 14 15 16 17 18 19 20 21 22 23 24 25 26 27 28 29 30 31 32 33 34 35 36 37 38 39 40 41 42 43 44 45 46 47 48 49 50
000
ASUS41 KCLE 240812
RWRCLE
OHIO REGIONAL WEATHER ROUNDUP
NATIONAL WEATHER SERVICE WILMINGTON, OH
400 AM EDT TUE OCT 24 2017

NOTE: "FAIR" INDICATES FEW OR NO CLOUDS BELOW 12,000 FEET WITH NO
SIGNIFICANT WEATHER AND/OR OBSTRUCTIONS TO VISIBILITY.

OHZ001>008-015>018-024>027-034-035-043-044-240900-
   NORTHWEST OHIO

CITY           SKY/WX    TMP DP  RH WIND       PRES   REMARKS
DEFIANCE       CLOUDY    50  47  89 S13       29.58F
FINDLAY        CLOUDY    49  44  83 SW16      29.60F
TOLEDO EXPRESS CLOUDY    48  47  96 S8        29.57S
TOLEDO EXEC    CLOUDY    49  44  83 SW9       29.59S
LIMA           CLOUDY    48  46  93 S9        29.62F
$$

OHZ009>014-019>023-028>033-038-089-240900-
   NORTHEAST OHIO

CITY           SKY/WX    TMP DP  RH WIND       PRES   REMARKS
CLE-HOPKINS    LGT RAIN  51  48  89 SW12      29.63R
CLE-LAKEFRONT  CLOUDY    53  48  83 SW22      29.60R
CUY CO. ARPT   NOT AVBL
LORAIN-ELYRIA  CLOUDY    49  43  80 W13       29.63R
ASHTABULA      LGT RAIN  56  54  93 SW17G23   29.58R FOG
AKRON-CANTON   CLOUDY    52  47  83 W15G25    29.64R
WOOSTER        CLOUDY    49  47  93 SW9       29.65R
MANSFIELD      MOCLDY    47  46  97 SW8       29.65R
YOUNGSTOWN     LGT RAIN  56  52  86 S9G21     29.60S
$$

OHZ042-051>053-060>062-070>072-077>081-240900-
  SOUTHWEST OHIO

CITY           SKY/WX    TMP DP  RH WIND       PRES   REMARKS
CINC-COVINGTON LGT RAIN  47  47 100 S7        29.70F
CINC-LUNKEN    RAIN      48  47  96 S6        29.74F
HAMILTON       HVY RAIN  49  48  97 SW9       29.71F FOG
DAYTON         LGT RAIN  47  47 100 S14       29.67F
WRIGHT-PAT AFB CLOUDY    48  47  99 S14       29.68F
DAYTON GENERAL LGT RAIN  48  45  89 SW12      29.68F
WILMINGTON     CLOUDY    46  45  96 S10       29.70F
$$

OHZ036-037-039>041-045>050-054>059-063>069-073>076-082>088-240900-
  CENTRAL AND SOUTHEAST OHIO

CITY           SKY/WX    TMP DP  RH WIND       PRES   REMARKS
COLUMBUS       FAIR      49  46  90 SW9       29.70F
OSU AIRPORT    FAIR      48  47  96 SW9       29.68F
BOLTON FIELD   FAIR      47  45  92 SW9       29.70F
RICKENBACK AFB FAIR      46  46  99 SW9       29.70F
NEWARK         FAIR      50  44  80 SW9       29.70R
MARION         MOCLDY    48  43  82 SW9       29.66S
LANCASTER      FAIR      48  32  53 SW7       29.72S
ZANESVILLE     MOCLDY    51  48  89 W6        29.70R
NEW PHILLY     CLOUDY    54  50  86 W10G17    29.68R
$$




USA.gov is the U.S. government's official web portal to all federal, state and local government web resources and services.